Location: Barcy
(49.0182°N, 2.8804°E)
Time: 09:40:11
(UTC+00:00)

Daily predictions for brighter satellites

Satellite Brightness Start Highest point End
(mag) Time Altitude Azimuth Time Altitude Azimuth Time Altitude Azimuth
Cosmos 2082 3.8 16:26:39 10° NNW 16:32:11 54° NE 16:37:40 10° SE
Cosmos 1697 Rocket 3.7 16:29:40 10° SSE 16:34:20 27° ESE 16:39:01 10° NE
CZ-4B R/B 2.8 16:34:20 10° N 16:37:32 40° WNW 16:40:48 10° SW
Cosmos 1842 Rocket 3.9 16:33:06 10° SSW 16:37:35 72° WNW 16:42:03 10° N
Cosmos 1238 Rocket 2.7 16:34:08 10° N 16:38:20 90° W 16:41:48 10° S
CZ-4B R/B 3.7 16:35:43 10° S 16:40:58 65° WSW 16:46:15 10° NNW
Cosmos 1825 4.3 16:43:05 10° NNW 16:46:27 30° W 16:49:47 10° SSW
Cosmos 1656 3.8 16:42:08 10° S 16:47:32 56° ESE 16:52:53 10° NE
Cosmos 1356 Rocket 3.8 16:44:13 10° SSE 16:48:13 45° E 16:52:18 10° NNE
YAOGAN 6 4.1 16:47:19 10° E 16:49:25 15° ENE 16:51:33 10° NNE
PSLV R/B 4.0 16:48:05 10° NNE 16:52:18 67° ESE 16:56:29 10° S
USA 215 3.8 16:46:25 10° ENE 16:52:32 44° N 16:58:39 10° WNW
Cosmos 1805 Rocket 3.5 16:48:55 10° N 16:53:19 75° E 16:57:41 10° SSE
IRS-1C Rocket 4.1 16:48:40 10° SSE 16:53:57 78° ENE 16:59:15 10° NNW
Cosmos 2056 Rocket 4.2 16:50:05 10° N 16:54:37 30° NE 16:59:10 10° ESE
Cosmos 2034 Rocket 4.4 16:54:02 10° N 17:00:04 42° ENE 17:06:04 10° SE
Cosmos 724 4.3 16:55:25 10° NW 17:01:16 65° NE 17:07:01 10° SE
BREEZE-M DEB (TANK) 2.2 16:57:45 10° W 17:02:04 78° N 17:03:53 15° E
USA 229 DEB 3.7 16:56:05 10° SW 17:02:42 88° SE 17:09:40 10° NE
USA 229 3.7 16:56:12 10° SW 17:02:47 87° SE 17:09:45 10° NE
CZ-4 R/B 2.5 17:00:01 10° ESE 17:03:15 23° ENE 17:06:27 10° NNE
Cosmos 1538 Rocket 4.1 16:58:32 10° SSW 17:03:50 85° WNW 17:09:13 10° NNE
ASTEX 1 4.0 16:58:55 10° N 17:03:52 61° W 17:08:45 10° SSW
NOSS 3-1 (C) 3.4 17:00:23 10° SW 17:05:59 86° SE 17:12:33 10° NE
Lacrosse 4 Rocket 1.4 17:02:31 10° SSW 17:06:30 57° ESE 17:10:14 11° NE
Meteor 2-20 Rocket 4.5 17:00:36 10° S 17:06:37 63° E 17:12:41 10° NNE
ERBS 2.2 17:04:15 10° SW 17:07:34 88° SSE 17:10:09 16° NE
NOSS 3-1 (A) 3.4 17:02:30 10° SSW 17:07:59 62° SE 17:14:11 11° NE
Okean-O 2.7 17:03:52 10° SSE 17:08:11 53° ENE 17:12:31 10° N
SeaSat 1 2.7 17:04:28 10° SE 17:09:10 46° NE 17:13:53 10° NNW
NOSS 2-3 (D) 4.3 17:05:24 10° S 17:09:27 38° ESE 17:13:16 14° ENE
Cosmos 1633 Rocket 3.0 17:15:20 10° N 17:19:44 63° ENE 17:24:07 10° SSE
Cosmos 1862 3.2 17:17:03 10° N 17:21:02 69° E 17:25:00 10° SSE
Envisat 3.0 17:18:49 10° SSE 17:23:49 62° ENE 17:28:51 10° N
Sich 1 3.3 17:21:12 10° NNW 17:25:33 71° W 17:29:56 10° S
Cosmos 1151 Rocket 3.5 17:22:05 10° SSE 17:26:07 38° E 17:30:13 10° NNE
CSL-04 Rocket 4.1 17:21:46 10° SE 17:26:39 38° ENE 17:31:30 10° N
CORIOLIS 4.3 17:22:48 10° SSE 17:28:13 78° WSW 17:33:42 10° NNW
Okean O Rocket 4.4 17:25:46 10° SW 17:29:10 22° W 17:32:35 10° NW
Cosmos 2228 Rocket 4.4 17:26:12 10° SE 17:29:07 20° E 17:29:07 20° E
Tsikada Rocket 4.4 17:24:06 10° SSE 17:29:58 40° E 17:35:54 10° NNE
SMAP 3.7 17:26:41 10° S 17:31:15 59° W 17:35:53 10° NNW
CENTAUR R/B 4.0 17:26:24 10° NW 17:32:43 30° NNE 17:37:14 18° ENE
Cosmos 1666 Rocket 3.7 17:30:33 10° NNW 17:34:57 77° W 17:39:15 10° S
Cosmos 1328 Rocket 3.7 17:31:30 10° S 17:35:47 52° E 17:40:05 10° NNE
Cosmos 1933 Rocket 3.9 17:31:49 10° N 17:35:55 39° ENE 17:39:59 10° SE
COSMO-SKYMED 1 2.9 17:33:59 12° NNE 17:37:52 42° E 17:41:59 10° S
SL-16 R/B 3.9 17:36:22 10° SE 17:38:08 14° ESE 17:38:08 14° ESE
Cosmos 1980 Rocket 2.4 17:34:41 10° S 17:40:06 48° ESE 17:43:59 19° NE
Cosmos 1515 Rocket 4.0 17:36:12 10° SSE 17:40:13 37° E 17:42:37 21° NE
Cosmos 1452 Rocket 4.3 17:38:28 10° N 17:43:10 31° NE 17:44:36 27° E
COBE Rocket 3.8 17:38:35 10° NNE 17:43:24 87° W 17:48:04 10° SSW
Cosmos 1633 3.6 17:40:01 10° NNW 17:43:32 48° W 17:47:03 10° S
Cosmos 158 Rocket 4.3 17:39:01 10° S 17:43:59 44° ESE 17:46:56 22° NE
Cosmos 2297 Rocket 4.3 17:39:29 10° NW 17:44:18 29° WSW 17:49:07 10° SSW
Cosmos 2227 Rocket 4.2 17:40:02 10° NW 17:44:58 31° WSW 17:49:52 10° SSW
Cosmos 1371 Rocket 3.9 17:40:17 10° NNW 17:45:31 83° ENE 17:50:42 10° SSE
Cosmos 1464 Rocket 4.2 17:39:57 10° NNW 17:46:06 73° W 17:52:10 10° S
Cosmos 2322 Rocket 4.1 17:43:46 10° SE 17:44:21 12° SE 17:44:21 12° SE
NOSS 2-3 (C) 3.7 17:42:41 10° SW 17:47:05 77° SE 17:50:10 24° NE
Geosat 4.0 17:44:30 19° NE 17:48:07 60° ESE 17:53:04 10° SSW
NOAA 12 4.4 17:43:13 10° S 17:48:33 70° WSW 17:53:53 10° NNW
GEOS 3 Rocket 3.6 17:49:26 24° NE 17:52:34 65° SE 17:57:48 10° SSW
USA 238 DEB 4.3 17:47:12 10° NW 17:53:50 41° NNE 17:56:59 28° E
USA 238 4.3 17:47:18 10° NW 17:53:56 41° NNE 17:57:04 28° ENE
ATLAS 3B R/B 3.8 17:49:18 10° NW 17:54:43 25° NNE 17:57:03 21° NE
NOSS 3-2 (A) 4.4 17:51:12 10° NW 17:57:54 41° NNE 18:01:13 29° ENE
Cosmos 2112 Rocket 3.9 17:55:55 10° SSW 18:01:07 89° ESE 18:05:20 16° NNE
Cosmos 2263 Rocket 2.2 17:55:51 10° NNW 18:01:20 54° NE 18:04:08 28° ESE
SKYMED 3 4.4 17:58:22 14° NNE 18:02:02 74° ESE 18:06:22 10° S
YAOGAN 1 2.4 17:59:33 10° SSE 18:03:51 72° ENE 18:08:11 10° N
Cosmos 1470 Rocket 3.7 18:01:46 10° NNW 18:06:16 80° W 18:10:44 10° S
Ariane Rocket 3.4 18:06:44 40° ENE 18:06:52 40° ENE 18:11:35 10° N
Cosmos 1680 Rocket 3.7 18:01:45 10° SSW 18:06:58 73° WNW 18:11:28 14° NNE
Cosmos 2369 4.2 18:05:42 10° SW 18:11:18 59° WNW 18:16:05 15° NNE
Cosmos 2346 Rocket 4.4 18:09:30 10° S 18:15:44 87° W 18:21:57 10° N
Cosmos 1697 Rocket 3.2 18:12:24 10° SW 18:17:58 57° WNW 18:22:23 16° NNE
APEX 3.4 18:15:31 10° SW 18:18:12 51° WSW 18:18:12 51° WSW
YAOGAN 6 3.6 18:19:16 10° S 18:22:36 44° W 18:25:59 10° NNW
SKYMED 2 3.9 18:22:41 16° N 18:26:05 65° WNW 18:30:21 10° SSW
Cosmos 2360 4.4 18:22:15 10° SW 18:27:56 70° WNW 18:31:22 25° NNE
Cosmos 2278 4.2 18:23:44 10° SW 18:29:20 58° WNW 18:33:10 21° NNE
USA 215 3.3 18:33:21 47° ENE 18:34:59 60° NNE 18:41:24 10° NW
Cosmos 2056 Rocket 4.5 18:32:01 10° NW 18:36:55 45° WSW 18:41:50 10° S
CZ-4 R/B 2.8 18:34:13 10° SSW 18:38:05 39° W 18:41:56 10° NNW
H-2A R/B 4.1 18:45:30 16° N 18:45:30 16° N 18:46:41 10° N
Cosmos 1939 Rocket 4.2 18:45:17 32° NNW 18:45:17 32° NNW 18:47:36 10° NNW
Cosmos 1844 Rocket 4.0 18:38:35 10° NNW 18:41:32 25° NNE 18:41:32 25° NNE
NOSS 3-2 (C) 4.2 18:36:57 10° NW 18:43:53 47° NE 18:44:47 46° NE
Lacrosse 4 Rocket 3.4 18:42:18 10° W 18:45:30 22° NW 18:46:34 20° NNW
SeaSat 1 4.1 18:42:25 10° S 18:46:48 32° WSW 18:51:14 10° NW
Cosmos 2278 Rocket 4.4 18:44:58 10° N 18:46:05 12° N 18:46:05 12° N
Meteor 1-26 Rocket 4.2 18:48:28 10° S 18:54:27 89° W 18:56:32 44° N
NOSS 3-1 (A) 4.5 18:53:44 10° W 18:59:15 39° NNW 19:01:38 30° NNE
Cosmos 1634 Rocket 4.4 18:56:56 10° NNW 19:03:00 60° W 19:09:03 10° S
Cosmos 2228 Rocket 4.2 19:03:04 10° SSW 19:06:42 43° WSW 19:06:42 43° WSW
Cosmos 2279 Rocket 4.1 19:15:10 10° NNW 19:21:22 70° W 19:21:39 69° WSW
SL-16 R/B 3.5 19:17:18 10° SSW 19:20:04 30° SSW 19:20:04 30° SSW
Cosmos 1980 Rocket 3.5 19:19:06 10° WSW 19:24:17 35° NW 19:25:47 30° NNW
CENTAUR R/B 3.3 19:17:27 10° NW 19:24:25 56° NNE 19:24:25 56° NNE
Cosmos 1452 Rocket 4.5 19:20:26 10° NNW 19:25:00 45° W 19:25:00 45° W
Cosmos 2322 Rocket 4.0 19:24:32 10° SSW 19:26:13 20° SSW 19:26:13 20° SSW
Cosmos 2263 Rocket 3.9 19:40:18 10° NW 19:44:57 28° WSW 19:45:55 26° WSW
USA 238 DEB 4.1 19:38:12 10° NW 19:44:27 65° WNW 19:44:27 65° WNW
USA 238 4.1 19:38:18 10° NW 19:44:31 65° WNW 19:44:31 65° WNW
ATLAS 3B R/B 3.7 19:40:16 10° NW 19:44:18 36° NNW 19:44:18 36° NNW
NOSS 3-2 (A) 4.1 19:42:02 10° NW 19:48:38 71° WNW 19:48:38 71° WNW
USA 215 4.4 20:20:42 37° WNW 20:20:42 37° WNW 20:24:31 10° WNW
